Flag for Norway Weather past 2 weeks in Stange, Norway

Now
45 °F

Quite cool.


Feels Like: 43 °F
Forecast: 21 / 43 °F
Wind: 3 mph from Northwest

Location: Haugedalshogda

Current Time: Apr 1, 2015 at 3:49:52 PM

Latest Report: Apr 1, 2015 at 3:00 PM


Visibility: N/A

Pressure: 29.29 "Hg

Humidity: 27%

Dew point: 12 °F

Location of StangeLocation

Historic Weather in Stange — Graph

°F

Stange temperature yesterday

Maximum temperature yesterday: 43 °F (at 4:00 PM)
Minimum temperature yesterday: 19 °F (at 8:00 AM)
Average temperature yesterday: 31 °F

Past Weeks' High & Low Weather Summary

 TemperatureHumidityPressure
High52 °F (Mar 23, 3:00 PM)96% (Mar 18, 5:00 AM)30.77 "Hg (Mar 18, 5:00 AM)
Low14 °F (Apr 1, 8:00 AM)28% (Mar 31, 4:00 PM)29.00 "Hg (Mar 31, 11:00 AM)
Average32 °F78%29.84 "Hg
* Reported Mar 17 1:00 PM — Apr 1 2:00 PM, Stange, Weather by CustomWeather, © 2015

Note: Actual official high and low records may vary slightly from our data, if they occured in-between our weather recording intervals... More about our weather records

Advertising

Stange weather history for previous 24 hours

 ConditionsComfort  
Time TempWeatherWind HumidityBarometerVisibility
2:00 PM
Wed, Apr 1
44 °FQuite cool.2 mph29%29.29 "HgN/A
1:00 PM42 °FQuite cool.1 mph32%29.29 "HgN/A
12:00 PM40 °FQuite cool.No wind34%29.29 "HgN/A
11:00 AM31 °FChilly.1 mph56%29.29 "HgN/A
10:00 AM28 °FChilly.1 mph62%29.29 "HgN/A
9:00 AM19 °FCold.1 mph88%29.29 "HgN/A
8:00 AM14 °FCold.No wind91%29.29 "HgN/A
7:00 AM14 °FCold.1 mph91%29.26 "HgN/A
6:00 AM16 °FCold.1 mph92%29.23 "HgN/A
5:00 AM17 °FCold.1 mph90%29.23 "HgN/A
4:00 AM20 °FCold.1 mph91%29.21 "HgN/A
3:00 AM19 °FCold.1 mph90%29.21 "HgN/A
2:00 AM19 °FCold.1 mph89%29.21 "HgN/A
1:00 AM19 °FCold.1 mph89%29.18 "HgN/A
12:00 AM20 °FCold.No wind85%29.15 "HgN/A
10:00 PM
Tue, Mar 31
25 °FChilly.1 mph76%29.12 "HgN/A
9:00 PM27 °FChilly.1 mph74%29.12 "HgN/A
8:00 PM34 °FChilly.2 mph51%29.09 "HgN/A
7:00 PM38 °FChilly.2 mph41%29.03 "HgN/A
6:00 PM42 °FQuite cool.3 mph31%29.03 "HgN/A
5:00 PM42 °FQuite cool.3 mph31%29.00 "HgN/A
4:00 PM43 °FQuite cool.3 mph28%29.00 "HgN/A
3:00 PM43 °FQuite cool.1 mph34%29.00 "HgN/A
Weather by CustomWeather, © 2015

See weather overviewHow to use our weather pages